SL-8 R/B

Satellite information

Favourite Embed

Satellite Type and Status

ROCKET BODYIN ORBIT

Key statistics

Satellite SL-8 R/B at a glance.

Uptime

18617

Days in orbit

Revolutions

≈ 14.4

Per day

Orbit

LEO

Low Earth Orbit

Inclination

74.0

Latest

Satellite identification and parameters

Extended collection of information and parameters for SL-8 R/B.

Object identification

Identified? True

Debris? False

Object name: SL-8 R/B

International designator: 1974-071B

Object number (NORAD): 7434

Object ID (CCSDS): 7434

Country: COMMONWEALTH OF INDEPENDENT STATES (CIS)

Current information (Y/N): Y

RCS size: LARGE

Orbital parameters

Period: 100.137 minutes

Inclination: 74.0448 deg

SMA: 7143.147 km

Apoapsis: 779.555 km

Periapsis: 750.469 km

RAAN: 107.5781 deg

Eccentricy: 0.00203594

Argument of periapsis: 354.5351 deg

Mean anomaly: 5.5578 deg

Mean motion: 14.38031374 rev/day

Mean motion (dot): 0.00000368 rev/day2

B* drag term: 0.00013004532 1/REarth

Two-line elements (TLE)

Creation date: Aug. 31, 2025, 2:26 a.m.

Reference frame: TEME

Reference center: EARTH

Epoch: Aug. 30, 2025, 9:10 p.m. UTC

TLE line 0: 0 SL-8 R/B

TLE line 1: 1 07434U 74071B 25242.88221145 .00000368 00000-0 13005-3 0 9992

TLE line 2: 2 07434 74.0448 107.5781 0020359 354.5351 5.5578 14.38031374666845

Live tracking on map

Real-time ground track for satellite SL-8 R/B.

In-orbit conjunctions

A list of the most updated potential collisions computed for object SL-8 R/B.

Target Orbit TCA Probability of collision Miss distance Type
FENGYUN 1C DEB SSO 2025-05-18 22:20:49 0.0003638916 21.0 (m) DEBRIS
SL-16 DEB LEO 2025-05-04 09:24:26 0.0004761029 170.0 (m) DEBRIS
COSMOS 1670 DEB LEO 2025-03-02 19:54:29 0.0006205422 139.0 (m) DEBRIS
COSMOS 1670 DEB LEO 2025-03-02 18:14:20 0.0001600552 746.0 (m) DEBRIS
SL-8 DEB LEO 2025-03-02 02:45:48 0.0001139287 271.0 (m) DEBRIS

Associated space launch

Military communications satellite

SL-8 R/B was lifted into orbit during the mission ‘Kosmos-3M | Strela-2M 9’, on board a Kosmos-3M space rocket.

The launch took place on Sept. 11, 1974, 5:40 p.m. from 132/2.

For more information about the launch, click the button.

Launch to space Kosmos-3M | Strela-2M 9
Kosmos-3M | Strela-2M 9

Agency: N/A

Status: Launch Successful

Launch date: Sept. 11, 1974, 5:40 p.m. UTC

Rocket: Kosmos-3M

Launch pad: 132/2

Location: Plesetsk Cosmodrome, Russian Federation

...

Latest news about this satellite

There are no fresh news available about this satellite. Check back as we update our databases every day.


Newsletter sign-up

Weekly statistics, charts and insights to help you stay on top of the space industry.